Location: Molveno
(46.1500°N, 10.9667°E)
Time: 08:15:34
(UTC+00:00)

COSMOS 2428 - Pass Details

Date: 05 July 2020
Orbit: 844 x 859 km, 70.9° (Epoch: 06 August)

Event Time Altitude Azimuth Distance (km) Brightness Sun altitude
Exits shadow 20:15:33 - 171° (S) 2,778 4.9 -9.4°
Reaches altitude 10° 20:16:29 10° 166° (SSE) 2,457 4.6 -9.5°
Maximum altitude 20:21:26 33° 105° (ESE) 1,401 3.4 -10.1°
Drops below altitude 10° 20:26:25 10° 44° (NE) 2,475 5.2 -10.6°
Sets 20:29:05 0° 35° (NE) 3,416 6.1 -10.9°
